Location: Newark
(44.4156°N, 12.1972°E)
Time: 16:51:19
(UTC+00:00)

STARLINK-1089 - Pass Details

Date: 29 January 2020
Orbit: 349 x 350 km, 53.0° (Epoch: 18 February)

Event Time Altitude Azimuth Distance (km) Brightness Sun altitude
Rises 17:44:47 0° 306° (NW) 2,168 7.4 -16.0°
Reaches altitude 10° 17:46:52 10° 313° (NW) 1,322 6.1 -16.4°
Enters shadow 17:49:37 43° 22° (NNE) 507 3.2 -16.9°
